Eagle, AK

6:09 AM AKDT on September 19, 2017 (GMT -0800)
Eagle

Weather History for PAEG - December, 2013

Change the Weather History Date:

Monday, December 30, 2013

  Actual Average (PABN) Record (PABN)
Temperature  
Mean Temperature -13 °F -  
Max Temperature 1 °F 1 °F 26 °F (2006)
Min Temperature -27 °F -3 °F -32 °F (1999)
Degree Days  
Heating Degree Days 78    
Moisture  
Dew Point -24 °F    
Average Humidity 71    
Maximum Humidity 75    
Minimum Humidity 66    
Precipitation  
Precipitation 0.00 in - - ()
Sea Level Pressure  
Sea Level Pressure 30.04 in    
Wind  
Wind Speed 3 mph (SE)    
Max Wind Speed 7 mph    
Max Gust Speed -    
Visibility 10 miles    
Events      
Averages and records for this station are not official NWS values.
T = Trace of Precipitation, MM = Missing Value Source: NWS Daily Summary

Daily Weather History Graph

Daily Weather History Graph

Search for Another Location

Airport or City:

Trip Planner

Search our weather history database for the weather conditions in past years. The results will help you decide how hot, cold, wet, or windy it might be!

Date:

Astronomy

Dec. 30, 2013 Rise Set
Actual Time 10:28 AM AKST 2:26 PM AKST
Civil Twilight 9:06 AM AKST 3:48 PM AKST
Nautical Twilight 7:55 AM AKST 4:59 PM AKST
Astronomical Twilight 6:54 AM AKST 6:00 PM AKST
Moon 7:57 AM AKST (12/30) 1:37 PM AKST (12/30)
Length of Visible Light 6h 42m
Length of Day
3h 57m
Waning Crescent, 4% of the Moon is Illuminated
Dec 30
Waning Crescent
Jan 1
New
Jan 7
First Quarter
Jan 15
Full
Jan 23
Last Quarter

Hourly Weather History & Observations

Time (AKST) Temp. Windchill Dew Point Humidity Pressure Visibility Wind Dir Wind Speed Gust Speed Precip Events Conditions
12:53 AM 1.0 °F -10.3 °F -7.1 °F 69% 30.15 in 10.0 mi East 5.8 mph - N/A   Overcast
1:53 AM -0.0 °F -13.0 °F -9.0 °F 66% 30.14 in 10.0 mi East 6.9 mph - N/A   Clear
3:53 AM -5.1 °F -15.8 °F -11.9 °F 72% 30.11 in 10.0 mi East 4.6 mph - N/A   Clear
4:53 AM -9.0 °F - -15.0 °F 75% 30.09 in 10.0 mi Calm Calm - N/A   Clear
5:53 AM -11.9 °F - -18.9 °F 71% 30.08 in 10.0 mi Calm Calm - N/A   Clear
6:53 AM -15.0 °F -25.0 °F -20.9 °F 75% 30.06 in 10.0 mi West 3.5 mph - N/A   Clear
7:53 AM -13.0 °F - -20.0 °F 71% 30.05 in 10.0 mi Calm Calm - N/A   Clear
8:53 AM -17.0 °F -27.2 °F -23.1 °F 74% 30.05 in 10.0 mi South 3.5 mph - N/A   Clear
9:53 AM -20.0 °F - -27.0 °F 70% 30.05 in 10.0 mi Calm Calm - N/A   Clear
10:53 AM -22.0 °F - -29.0 °F 70% 30.03 in 10.0 mi Calm Calm - N/A   Clear
11:53 AM -22.0 °F - -29.0 °F 70% 30.01 in 10.0 mi Calm Calm - N/A   Clear
12:53 PM -22.0 °F - -29.0 °F 70% 30.00 in 10.0 mi Calm Calm - N/A   Clear
1:53 PM -23.1 °F - -29.0 °F 74% 30.00 in 10.0 mi Calm Calm - N/A   Clear
2:53 PM -24.0 °F - -32.1 °F 66% 29.99 in 10.0 mi Calm Calm - N/A   Clear
3:53 PM -27.0 °F -38.7 °F -33.0 °F 73% 30.00 in 10.0 mi SSE 3.5 mph - N/A   Clear
4:53 PM -26.0 °F - -33.0 °F 69% 30.00 in 10.0 mi Calm Calm - N/A   Clear
5:53 PM -27.0 °F - -34.1 °F 69% 30.00 in 10.0 mi Calm Calm - N/A   Clear
6:53 PM -27.9 °F - -34.1 °F 73% 30.01 in 10.0 mi Calm Calm - N/A   Clear
7:53 PM -24.0 °F -35.2 °F -31.0 °F 70% 30.00 in 10.0 mi South 3.5 mph - N/A   Mostly Cloudy
8:53 PM -22.0 °F - -29.0 °F 70% 30.00 in 10.0 mi Calm Calm - N/A   Overcast
9:53 PM -17.0 °F - -23.1 °F 74% 30.00 in 10.0 mi Calm Calm - N/A   Overcast
10:53 PM -13.0 °F - -18.9 °F 75% 30.00 in 10.0 mi Calm Calm - N/A   Overcast
11:53 PM -11.9 °F - -18.9 °F 71% 30.01 in 10.0 mi Calm Calm - N/A   Overcast